BAW842 EGLL-EPWA

Flight info

Callsign BAW842
Flight time 1h 34m
Altitude 60000
Route BPK DCT REDFA DCT XIPTI DCT INSUS DCT CDA DCT GORPI DCT TZE DCT BIBKA DCT SORIX
Aircraft CONC/H-SDFHIRW/X

Departure

Time 2026-05-04 15:02
Airport London Heathrow Airport (EGLL)

Arrival

Time 2026-05-04 16:37
Airport Warsaw Chopin Airport (EPWA)
Time Latitude Longitude Altitude Speed Heading
2026-05-04 14:12 51.46203 -0.44411 88 ft 0 kts 294°
2026-05-04 14:34 51.46204 -0.44411 88 ft 0 kts 294°
2026-05-04 14:34 51.46199 -0.44394 88 ft 2 kts 294°
2026-05-04 14:34 51.46193 -0.44373 88 ft 2 kts 294°
2026-05-04 14:34 51.46186 -0.44350 88 ft 2 kts 302°
2026-05-04 14:35 51.46176 -0.44333 88 ft 2 kts 324°
2026-05-04 14:35 51.46163 -0.44322 88 ft 2 kts 343°
2026-05-04 14:35 51.46149 -0.44319 88 ft 2 kts
2026-05-04 14:35 51.46135 -0.44323 88 ft 1 kts 20°
2026-05-04 14:36 51.46129 -0.44327 89 ft 1 kts 25°
2026-05-04 14:36 51.46128 -0.44328 89 ft 0 kts 24°
2026-05-04 14:51 51.46134 -0.44324 88 ft 3 kts 24°
2026-05-04 14:51 51.46167 -0.44301 88 ft 5 kts 23°
2026-05-04 14:51 51.46191 -0.44284 88 ft 4 kts 23°
2026-05-04 14:52 51.46227 -0.44260 88 ft 6 kts 23°
2026-05-04 14:52 51.46278 -0.44224 88 ft 8 kts 24°
2026-05-04 14:52 51.46321 -0.44190 88 ft 4 kts 28°
2026-05-04 14:52 51.46331 -0.44182 88 ft 0 kts 29°
2026-05-04 14:55 51.46346 -0.44168 88 ft 6 kts 30°
2026-05-04 14:55 51.46413 -0.44110 88 ft 15 kts 26°
2026-05-04 14:55 51.46494 -0.44060 88 ft 7 kts
2026-05-04 14:56 51.46558 -0.44055 89 ft 8 kts
2026-05-04 14:56 51.46624 -0.44049 89 ft 10 kts 17°
2026-05-04 14:56 51.46664 -0.43975 87 ft 8 kts 77°
2026-05-04 14:56 51.46666 -0.43847 85 ft 13 kts 89°
2026-05-04 14:57 51.46667 -0.43702 85 ft 12 kts 85°
2026-05-04 14:57 51.46733 -0.43611 83 ft 15 kts
2026-05-04 14:57 51.46839 -0.43599 83 ft 16 kts
2026-05-04 14:57 51.46947 -0.43606 82 ft 14 kts 359°
2026-05-04 14:58 51.47043 -0.43609 80 ft 12 kts
2026-05-04 14:58 51.47126 -0.43603 79 ft 10 kts
2026-05-04 14:58 51.47190 -0.43593 79 ft 7 kts
2026-05-04 14:58 51.47239 -0.43590 80 ft 10 kts
2026-05-04 14:59 51.47344 -0.43500 78 ft 22 kts 39°
2026-05-04 14:59 51.47448 -0.43352 81 ft 18 kts 43°
2026-05-04 14:59 51.47596 -0.43255 81 ft 8 kts 357°
2026-05-04 15:00 51.47644 -0.43269 82 ft 8 kts 339°
2026-05-04 15:00 51.47717 -0.43355 84 ft 15 kts 318°
2026-05-04 15:00 51.47768 -0.43472 86 ft 10 kts 278°
2026-05-04 15:01 51.47768 -0.43511 86 ft 0 kts 269°
2026-05-04 15:01 51.47768 -0.43518 86 ft 6 kts 269°
2026-05-04 15:02 51.47767 -0.43876 90 ft 73 kts 271°
2026-05-04 15:02 51.47762 -0.45230 92 ft 172 kts 269°
2026-05-04 15:02 51.47745 -0.47637 195 ft 247 kts 269°
2026-05-04 15:02 51.47681 -0.50569 755 ft 289 kts 269°
2026-05-04 15:03 51.47578 -0.53782 1684 ft 272 kts 270°
2026-05-04 15:03 51.47572 -0.56861 1732 ft 271 kts 283°
2026-05-04 15:03 51.48220 -0.59610 1499 ft 265 kts 308°
2026-05-04 15:03 51.49397 -0.61849 1870 ft 261 kts 319°
2026-05-04 15:04 51.50718 -0.63869 2726 ft 263 kts 317°
2026-05-04 15:04 51.52077 -0.65785 3806 ft 270 kts 336°
2026-05-04 15:04 51.53831 -0.66362 4752 ft 273 kts 11°
2026-05-04 15:04 51.55615 -0.65333 6003 ft 281 kts 32°
2026-05-04 15:05 51.57018 -0.63226 7151 ft 290 kts 54°
2026-05-04 15:05 51.58219 -0.60569 8274 ft 297 kts 52°
2026-05-04 15:05 51.59448 -0.57971 9296 ft 301 kts 53°
2026-05-04 15:05 51.60709 -0.55292 10328 ft 305 kts 53°
2026-05-04 15:06 51.61980 -0.52576 11367 ft 314 kts 54°
2026-05-04 15:06 51.63079 -0.49502 12316 ft 332 kts 64°
2026-05-04 15:06 51.64122 -0.46020 12988 ft 363 kts 63°
2026-05-04 15:07 51.66579 -0.38071 14494 ft 437 kts 63°
2026-05-04 15:07 51.67999 -0.33465 15296 ft 481 kts 64°
2026-05-04 15:07 51.69521 -0.28514 16214 ft 507 kts 64°
2026-05-04 15:07 51.71092 -0.23392 17036 ft 514 kts 64°
2026-05-04 15:08 51.72681 -0.18201 17780 ft 516 kts 64°
2026-05-04 15:08 51.74267 -0.13002 18523 ft 521 kts 65°
2026-05-04 15:08 51.75467 -0.07529 19292 ft 527 kts 77°
2026-05-04 15:08 51.76333 -0.01702 20114 ft 535 kts 77°
2026-05-04 15:09 51.77229 0.04152 20874 ft 542 kts 77°
2026-05-04 15:09 51.78121 0.10049 21632 ft 550 kts 77°
2026-05-04 15:09 51.79023 0.16037 22393 ft 558 kts 77°
2026-05-04 15:10 51.80870 0.28367 23959 ft 574 kts 77°
2026-05-04 15:10 51.81804 0.34626 25344 ft 579 kts 77°
2026-05-04 15:10 51.83701 0.47425 28741 ft 599 kts 77°
2026-05-04 15:11 51.84668 0.53998 30122 ft 615 kts 77°
2026-05-04 15:11 51.85656 0.60759 31117 ft 626 kts 77°
2026-05-04 15:11 51.86644 0.67528 33056 ft 618 kts 78°
2026-05-04 15:11 51.87614 0.74205 34740 ft 618 kts 79°
2026-05-04 15:12 51.88592 0.81001 35095 ft 639 kts 79°
2026-05-04 15:12 51.89599 0.88020 35101 ft 662 kts 79°
2026-05-04 15:12 51.90653 0.95387 35214 ft 679 kts 78°
2026-05-04 15:12 51.91713 1.02843 35660 ft 692 kts 78°
2026-05-04 15:13 51.92802 1.10534 35926 ft 708 kts 78°
2026-05-04 15:13 51.93875 1.18138 36300 ft 726 kts 78°
2026-05-04 15:13 51.94968 1.25928 36799 ft 741 kts 78°
2026-05-04 15:13 51.96086 1.33936 37327 ft 762 kts 78°
2026-05-04 15:14 51.97248 1.42296 37880 ft 778 kts 78°
2026-05-04 15:14 51.98426 1.50833 38466 ft 798 kts 77°
2026-05-04 15:14 51.99649 1.59742 38739 ft 818 kts 77°
2026-05-04 15:14 52.00864 1.68643 39513 ft 834 kts 78°
2026-05-04 15:15 52.02139 1.78045 39704 ft 858 kts 78°
2026-05-04 15:15 52.03409 1.87480 40531 ft 873 kts 78°
2026-05-04 15:15 52.04700 1.97128 40761 ft 899 kts 78°
2026-05-04 15:16 52.07338 2.17041 41389 ft 918 kts 78°
2026-05-04 15:16 52.08810 2.27162 41598 ft 925 kts 71°
2026-05-04 15:16 52.14651 2.45715 41978 ft 938 kts 51°
2026-05-04 15:17 52.18943 2.53879 42189 ft 946 kts 43°
2026-05-04 15:17 52.29653 2.66202 42559 ft 960 kts 24°
2026-05-04 15:17 52.35905 2.70069 42800 ft 966 kts 17°
2026-05-04 15:18 52.42166 2.74026 43158 ft 976 kts 25°
2026-05-04 15:18 52.48358 2.78916 43457 ft 987 kts 26°
2026-05-04 15:18 52.54548 2.83938 43938 ft 1007 kts 26°
2026-05-04 15:19 52.67159 2.94341 45504 ft 1038 kts 26°
2026-05-04 15:19 52.73705 2.99780 46119 ft 1059 kts 26°
2026-05-04 15:19 52.86934 3.10829 47390 ft 1089 kts 26°
2026-05-04 15:20 52.93637 3.16457 48218 ft 1100 kts 26°
2026-05-04 15:20 53.00583 3.22308 48776 ft 1114 kts 26°
2026-05-04 15:20 53.07448 3.28112 49402 ft 1134 kts 26°
2026-05-04 15:20 53.14468 3.34070 50299 ft 1149 kts 26°
2026-05-04 15:21 53.21665 3.40202 50904 ft 1169 kts 26°
2026-05-04 15:21 53.28925 3.46410 51844 ft 1168 kts 26°
2026-05-04 15:21 53.43270 3.58747 53644 ft 1167 kts 26°
2026-05-04 15:22 53.50361 3.64882 54396 ft 1168 kts 26°
2026-05-04 15:22 53.57525 3.71101 55083 ft 1168 kts 27°
2026-05-04 15:22 53.71795 3.83563 56228 ft 1169 kts 27°
2026-05-04 15:23 53.78841 3.89752 56630 ft 1169 kts 27°
2026-05-04 15:23 53.86038 3.96098 56976 ft 1169 kts 27°
2026-05-04 15:23 53.93247 4.02479 57302 ft 1168 kts 27°
2026-05-04 15:23 54.00367 4.08807 57609 ft 1168 kts 27°
2026-05-04 15:24 54.14453 4.21396 58133 ft 1169 kts 27°
2026-05-04 15:24 54.28321 4.33886 58561 ft 1169 kts 27°
2026-05-04 15:25 54.35495 4.40385 58749 ft 1170 kts 27°
2026-05-04 15:25 54.42630 4.46874 58923 ft 1170 kts 27°
2026-05-04 15:25 54.49847 4.53465 59081 ft 1170 kts 27°
2026-05-04 15:26 54.64109 4.66567 59382 ft 1171 kts 28°
2026-05-04 15:26 54.82847 4.93125 59252 ft 1172 kts 54°
2026-05-04 15:27 54.96628 5.27836 59617 ft 1169 kts 65°
2026-05-04 15:28 55.01973 5.54103 60455 ft 1156 kts 81°
2026-05-04 15:28 55.03033 5.67981 60572 ft 1152 kts 90°
2026-05-04 15:28 55.02154 5.95493 60726 ft 1138 kts 90°
2026-05-04 15:29 55.02151 6.08971 60810 ft 1127 kts 83°
2026-05-04 15:30 55.08835 6.60833 60945 ft 1089 kts 80°
2026-05-04 15:30 55.12600 6.99134 60056 ft 1095 kts 80°
2026-05-04 15:31 55.15183 7.25434 60153 ft 1147 kts 80°
2026-05-04 15:31 55.16517 7.39209 60183 ft 1171 kts 80°
2026-05-04 15:32 55.20504 7.81451 60089 ft 1192 kts 81°
2026-05-04 15:32 55.21964 8.09930 60154 ft 1187 kts 91°
2026-05-04 15:33 55.21235 8.38710 59920 ft 1194 kts 93°
2026-05-04 15:34 55.19626 8.81665 59920 ft 1187 kts 94°
2026-05-04 15:34 55.17838 9.24619 59927 ft 1188 kts 94°
2026-05-04 15:35 55.16606 9.52272 59789 ft 1146 kts 94°
2026-05-04 15:35 55.16006 9.65254 59134 ft 1035 kts 95°
2026-05-04 15:35 55.15468 9.76638 58246 ft 935 kts 95°
2026-05-04 15:36 55.14443 9.97721 56823 ft 845 kts 95°
2026-05-04 15:36 55.13958 10.07445 56287 ft 804 kts 95°
2026-05-04 15:36 55.13499 10.16499 55724 ft 766 kts 95°
2026-05-04 15:37 55.13037 10.25492 55102 ft 726 kts 95°
2026-05-04 15:37 55.12597 10.33938 54134 ft 695 kts 95°
2026-05-04 15:37 55.12165 10.42102 52297 ft 676 kts 95°
2026-05-04 15:37 55.11748 10.49904 49710 ft 669 kts 95°
2026-05-04 15:38 55.11331 10.57620 46849 ft 664 kts 95°
2026-05-04 15:38 55.10911 10.65289 44383 ft 621 kts 96°
2026-05-04 15:38 55.10531 10.72175 42580 ft 555 kts 96°
2026-05-04 15:38 55.10177 10.78525 42023 ft 516 kts 97°
2026-05-04 15:39 55.09832 10.84589 42202 ft 507 kts 96°
2026-05-04 15:39 55.09506 10.90302 42288 ft 504 kts 96°
2026-05-04 15:39 55.08816 11.02256 42417 ft 496 kts 97°
2026-05-04 15:40 55.08471 11.08143 42447 ft 492 kts 96°
2026-05-04 15:40 55.07780 11.19814 42269 ft 490 kts 96°
2026-05-04 15:40 55.07431 11.25635 42085 ft 493 kts 96°
2026-05-04 15:41 55.07072 11.31592 41954 ft 502 kts 96°
2026-05-04 15:41 55.06333 11.43671 42024 ft 515 kts 96°
2026-05-04 15:41 55.05951 11.49819 42009 ft 526 kts 96°
2026-05-04 15:42 55.05550 11.56243 41995 ft 539 kts 96°
2026-05-04 15:42 55.04723 11.69343 41965 ft 547 kts 97°
2026-05-04 15:43 55.03887 11.82334 42016 ft 561 kts 97°
2026-05-04 15:43 55.03042 11.95248 41930 ft 560 kts 97°
2026-05-04 15:44 55.02143 12.08747 42016 ft 576 kts 97°
2026-05-04 15:44 55.01220 12.22351 42001 ft 583 kts 97°
2026-05-04 15:45 55.00268 12.36215 41925 ft 577 kts 97°
2026-05-04 15:45 54.99977 12.50009 41993 ft 581 kts 91°
2026-05-04 15:46 54.99795 12.63834 41970 ft 581 kts 91°
2026-05-04 15:46 54.99589 12.77795 41944 ft 579 kts 92°
2026-05-04 15:47 54.99361 12.91794 41938 ft 580 kts 92°
2026-05-04 15:47 54.99121 13.05648 41942 ft 580 kts 92°
2026-05-04 15:48 54.98862 13.19643 41961 ft 580 kts 92°
2026-05-04 15:48 54.98443 13.40502 41955 ft 580 kts 92°
2026-05-04 15:49 54.98145 13.54397 41951 ft 579 kts 92°
2026-05-04 15:49 54.97829 13.68415 41940 ft 579 kts 93°
2026-05-04 15:50 54.97499 13.82371 41932 ft 580 kts 93°
2026-05-04 15:50 54.97151 13.96308 41931 ft 580 kts 94°
2026-05-04 15:51 54.96788 14.10306 41932 ft 581 kts 94°
2026-05-04 15:51 54.96407 14.24294 41923 ft 581 kts 94°
2026-05-04 15:52 54.96013 14.38205 41937 ft 580 kts 94°
2026-05-04 15:52 54.95147 14.51996 41922 ft 576 kts 114°
2026-05-04 15:53 54.93530 14.58072 42121 ft 574 kts 122°
2026-05-04 15:53 54.91509 14.63970 42082 ft 578 kts 123°
2026-05-04 15:53 54.89448 14.69678 41868 ft 573 kts 126°
2026-05-04 15:53 54.87359 14.75147 41926 ft 569 kts 126°
2026-05-04 15:54 54.82934 14.86597 41911 ft 570 kts 126°
2026-05-04 15:54 54.78544 14.97854 41934 ft 571 kts 127°
2026-05-04 15:55 54.74126 15.09124 41929 ft 570 kts 126°
2026-05-04 15:55 54.69796 15.20115 41924 ft 569 kts 126°
2026-05-04 15:56 54.65508 15.30953 41936 ft 569 kts 126°
2026-05-04 15:56 54.61011 15.42267 41944 ft 569 kts 126°
2026-05-04 15:57 54.56539 15.53468 41952 ft 568 kts 126°
2026-05-04 15:57 54.52065 15.64627 41954 ft 567 kts 126°
2026-05-04 15:58 54.47587 15.75743 41936 ft 567 kts 127°
2026-05-04 15:58 54.43076 15.86889 41952 ft 567 kts 127°
2026-05-04 15:59 54.38587 15.97937 41948 ft 567 kts 127°
2026-05-04 15:59 54.34071 16.08994 41931 ft 566 kts 127°
2026-05-04 16:00 54.29559 16.20001 41944 ft 566 kts 127°
2026-05-04 16:00 54.25055 16.30938 41954 ft 564 kts 127°
2026-05-04 16:01 54.20542 16.41851 41942 ft 564 kts 127°
2026-05-04 16:01 54.16028 16.52708 41961 ft 564 kts 127°
2026-05-04 16:02 54.11489 16.63587 41948 ft 564 kts 127°
2026-05-04 16:03 54.04681 16.79814 41970 ft 565 kts 128°
2026-05-04 16:03 54.00176 16.90494 41945 ft 564 kts 128°
2026-05-04 16:04 53.95726 17.00998 41934 ft 563 kts 128°
2026-05-04 16:04 53.88858 17.17125 41934 ft 564 kts 128°
2026-05-04 16:05 53.84256 17.27873 41926 ft 564 kts 128°
2026-05-04 16:06 53.77358 17.43899 41931 ft 563 kts 128°
2026-05-04 16:07 53.68280 17.64833 41943 ft 564 kts 128°
2026-05-04 16:08 53.59050 17.85938 41934 ft 564 kts 129°
2026-05-04 16:09 53.47510 18.12080 41939 ft 563 kts 129°
2026-05-04 16:10 53.38168 18.33046 41935 ft 563 kts 129°
2026-05-04 16:11 53.28916 18.53641 41914 ft 564 kts 129°
2026-05-04 16:12 53.14846 18.84647 41914 ft 562 kts 129°
2026-05-04 16:13 53.10115 18.94975 41649 ft 566 kts 129°
2026-05-04 16:13 53.05436 19.05174 40627 ft 557 kts 129°
2026-05-04 16:14 53.00827 19.15170 38139 ft 538 kts 130°
2026-05-04 16:14 52.96510 19.24496 35667 ft 529 kts 130°
2026-05-04 16:15 52.90037 19.38391 32075 ft 512 kts 130°
2026-05-04 16:16 52.85849 19.47352 29611 ft 499 kts 130°
2026-05-04 16:16 52.80207 19.59380 25986 ft 472 kts 129°
2026-05-04 16:17 52.75799 19.68736 22807 ft 447 kts 130°
2026-05-04 16:18 52.70298 19.80371 18791 ft 423 kts 131°
2026-05-04 16:18 52.68687 19.84143 17520 ft 418 kts 121°
2026-05-04 16:19 52.64582 19.96208 14365 ft 400 kts 123°
2026-05-04 16:19 52.61854 20.04051 13311 ft 395 kts 123°
2026-05-04 16:20 52.57840 20.15519 11717 ft 384 kts 123°
2026-05-04 16:20 52.55203 20.22974 10665 ft 376 kts 128°
2026-05-04 16:21 52.50830 20.31730 9051 ft 299 kts 134°
2026-05-04 16:22 52.48193 20.36808 8258 ft 297 kts 133°
2026-05-04 16:22 52.44227 20.44414 7191 ft 292 kts 133°
2026-05-04 16:23 52.40306 20.51881 6918 ft 288 kts 133°
2026-05-04 16:24 52.35027 20.61895 6922 ft 290 kts 133°
2026-05-04 16:25 52.32441 20.66785 6920 ft 290 kts 134°
2026-05-04 16:26 52.27229 20.76609 6915 ft 289 kts 134°
2026-05-04 16:26 52.23286 20.84017 6917 ft 291 kts 134°
2026-05-04 16:27 52.20631 20.88992 7015 ft 292 kts 134°
2026-05-04 16:28 52.16675 20.96390 6911 ft 290 kts 134°
2026-05-04 16:28 52.12753 21.03700 5521 ft 281 kts 134°
2026-05-04 16:29 52.07727 21.13038 3598 ft 279 kts 134°
2026-05-04 16:30 52.04074 21.19809 2825 ft 246 kts 134°
2026-05-04 16:31 52.01839 21.23935 2931 ft 244 kts 134°
2026-05-04 16:31 51.97880 21.23854 2974 ft 212 kts 252°
2026-05-04 16:32 51.98950 21.17116 2987 ft 213 kts 294°
2026-05-04 16:33 52.00335 21.12885 2917 ft 212 kts 296°
2026-05-04 16:33 52.02125 21.09155 2990 ft 219 kts 331°
2026-05-04 16:34 52.04840 21.06902 2653 ft 222 kts 328°
2026-05-04 16:34 52.06173 21.05749 2348 ft 204 kts 328°
2026-05-04 16:35 52.09827 21.02586 1567 ft 195 kts 328°
2026-05-04 16:35 52.13527 20.99396 710 ft 198 kts 330°
2026-05-04 16:36 52.14731 20.98377 478 ft 191 kts 330°
2026-05-04 16:36 52.16842 20.96479 335 ft 133 kts 329°
2026-05-04 16:37 52.17473 20.96016 344 ft 16 kts 28°
2026-05-04 16:37 52.17558 20.96093 342 ft 4 kts 48°
2026-05-04 16:37 52.17558 20.96095 342 ft 0 kts 50°
2026-05-04 16:39 52.17593 20.96120 342 ft 6 kts 15°
2026-05-04 16:39 52.17710 20.96158 341 ft 8 kts 49°
2026-05-04 16:40 52.17734 20.96226 340 ft 0 kts 60°